Nausori, Fiji

1:52 AM FJT on February 10, 2016 (GMT +1200)
Nausori International

Weather History for NFNA - January, 2011

Change the Weather History Date:

Friday, January 14, 2011

  Actual Average Record
Temperature  
Mean Temperature 80 °F -  
Max Temperature 86 °F - - ()
Min Temperature 73 °F - - ()
Cooling Degree Days 14    
Growing Degree Days 30 (Base 50)    
Moisture  
Dew Point 74 °F    
Average Humidity 93    
Maximum Humidity 100    
Minimum Humidity 70    
Precipitation  
Precipitation 0.20 in - - ()
Sea Level Pressure  
Sea Level Pressure 29.74 in    
Wind  
Wind Speed 2 mph ()    
Max Wind Speed 12 mph    
Max Gust Speed -    
Visibility 14.9 miles    
Events Rain    
T = Trace of Precipitation, MM = Missing Value Source: Averaged Metar Reports

Daily Weather History Graph

Daily Weather History Graph

Search for Another Location

Airport or City:

Trip Planner

Search our weather history database for the weather conditions in past years. The results will help you decide how hot, cold, wet, or windy it might be!

Date:

Astronomy

Jan. 14, 2011 Rise Set
Actual Time 6:41 AM FJST 7:47 PM FJST
Civil Twilight 6:17 AM FJST 8:11 PM FJST
Nautical Twilight 5:49 AM FJST 8:39 PM FJST
Astronomical Twilight 5:20 AM FJST 9:08 PM FJST
Moon 2:29 PM FJST (1/14) 1:13 AM FJST (1/14)
Length of Visible Light 13h 54m
Length of Day
13h 06m
Waxing Gibbous, 64% of the Moon is Illuminated
Jan 14
Waxing Gibbous
Jan 20
Full
Jan 27
Last Quarter
Feb 3
New
Feb 11
First Quarter

Hourly Weather History & Observations

Time (FJST) Temp. Heat Index Dew Point Humidity Pressure Visibility Wind Dir Wind Speed Gust Speed Precip Events Conditions
12:00 AM 75.2 °F - 73.4 °F 94% 29.77 in 24.9 mi Calm Calm - N/A   Overcast
1:00 AM 75 °F - 74 °F 96% 29.75 in 12 mi Calm Calm - -   Partly Cloudy
1:00 AM 75.2 °F - 73.4 °F 94% 29.74 in 18.6 mi Calm Calm - N/A   Overcast
2:00 AM 75.2 °F - 73.4 °F 94% 29.74 in 18.6 mi Calm Calm - N/A   Overcast
3:00 AM 75.2 °F - 73.4 °F 94% 29.74 in 18.6 mi Calm Calm - N/A   Overcast
4:00 AM 75 °F - 74 °F 96% 29.73 in 12 mi Calm Calm - -   Partly Cloudy
4:00 AM 75.2 °F - 73.4 °F 94% 29.71 in 18.6 mi Calm Calm - N/A   Overcast
5:00 AM 73.4 °F - 73.4 °F 100% 29.71 in 24.9 mi Calm Calm - N/A   Overcast
6:00 AM 73.4 °F - 73.4 °F 100% 29.71 in 24.9 mi Calm Calm - N/A   Overcast
7:00 AM 74 °F - 73 °F 97% 29.76 in 12 mi Calm Calm - -   Partly Cloudy
7:00 AM 73.4 °F - 73.4 °F 100% 29.74 in 24.9 mi Calm Calm - N/A   Overcast
8:00 AM 73.4 °F - 73.4 °F 100% 29.74 in 24.9 mi Calm Calm - N/A   Overcast
10:00 AM 74 °F - 74 °F 100% 29.80 in 6 mi NNW 9.2 mph - - Rain Light Rain
12:00 PM 77.0 °F - 75.2 °F 94% 29.77 in 18.6 mi North 11.5 mph - N/A Rain Light Rain Showers
1:00 PM 79 °F - 75 °F 85% 29.76 in 12 mi NNW 9.2 mph - - Rain Light Rain Showers
1:00 PM 78.8 °F - 75.2 °F 89% 29.74 in 28.0 mi NNW 9.2 mph - N/A   Overcast
2:00 PM 84.2 °F 94.1 °F 77.0 °F 79% 29.71 in 31.1 mi NNW 9.2 mph - N/A   Mostly Cloudy
3:00 PM 86.0 °F 95.1 °F 75.2 °F 70% 29.71 in 31.1 mi NNW 10.4 mph - N/A   Mostly Cloudy
4:00 PM 78 °F - 76 °F 90% 29.72 in 12 mi Calm Calm - - Rain Light Rain Showers
4:00 PM 77.0 °F - 75.2 °F 94% 29.71 in 28.0 mi Calm Calm - N/A   Mostly Cloudy
5:00 PM 82.4 °F 89.5 °F 75.2 °F 79% 29.68 in 24.9 mi NNE 8.1 mph - N/A   Mostly Cloudy
6:00 PM 77.0 °F - 75.2 °F 94% 29.71 in 18.6 mi NNW 5.8 mph - N/A Rain Light Rain Showers
7:00 PM 77 °F - 75 °F 92% 29.74 in 12 mi Calm Calm - - Rain Light Rain Showers
7:00 PM 77.0 °F - 75.2 °F 94% 29.74 in 18.6 mi Calm Calm - N/A Rain Light Rain Showers
8:00 PM 77.0 °F - 75.2 °F 94% 29.74 in 31.1 mi Calm Calm - N/A   Overcast
9:00 PM 77.0 °F - 75.2 °F 94% 29.77 in 31.1 mi Calm Calm - N/A   Overcast
10:00 PM 75.2 °F - 73.4 °F 94% 29.80 in 24.9 mi Calm Calm - N/A   Overcast
11:00 PM 75.2 °F - 73.4 °F 94% 29.80 in 24.9 mi NE 5.8 mph - N/A   Mostly Cloudy